�������l�o���
Date,Time,MP-1(��Sv/h),MP-2(��Sv/h),MP-3(��Sv/h),MP-4(��Sv/h),MP-5(��Sv/h),MP-6(��Sv/h),MP-7(��Sv/h),MP-8(��Sv/h),����,����(m/s),���J
2019/12/17,00:00,0.719,1.044,0.698,1.309,0.912,0.410,0.719,0.683,�쓌,0.8,��
2019/12/17,00:10,0.721,1.041,0.697,1.311,0.914,0.411,0.719,0.683,���쓌,0.8,��
2019/12/17,00:20,0.721,1.042,0.696,1.311,0.912,0.409,0.720,0.683,��,0.8,��
2019/12/17,00:30,0.722,1.042,0.695,1.310,0.914,0.410,0.719,0.681,�k��,0.8,��
2019/12/17,00:40,0.721,1.041,0.695,1.310,0.914,0.408,0.718,0.683,-,CALM,��
2019/12/17,00:50,0.720,1.041,0.699,1.311,0.910,0.409,0.718,0.683,���쐼,0.8,��
2019/12/17,01:00,0.721,1.040,0.697,1.310,0.912,0.411,0.719,0.682,��쐼,0.5,��
2019/12/17,01:10,0.722,1.042,0.696,1.311,0.911,0.409,0.719,0.683,-,CALM,��
2019/12/17,01:20,0.721,1.044,0.695,1.309,0.913,0.411,0.718,0.682,��쐼,0.9,��
2019/12/17,01:30,0.720,1.041,0.699,1.311,0.912,0.411,0.719,0.682,��,0.9,��
2019/12/17,01:40,0.720,1.040,0.696,1.309,0.913,0.410,0.717,0.683,���쓌,0.7,��
2019/12/17,01:50,0.721,1.040,0.695,1.311,0.912,0.410,0.719,0.681,���k��,0.5,��
2019/12/17,02:00,0.720,1.042,0.696,1.307,0.911,0.409,0.717,0.681,-,CALM,��
2019/12/17,02:10,0.720,1.042,0.696,1.310,0.912,0.409,0.718,0.681,�쐼,1.6,��
2019/12/17,02:20,0.722,1.043,0.697,1.308,0.911,0.411,0.719,0.683,�k�k��,0.5,��
2019/12/17,02:30,0.722,1.042,0.696,1.312,0.911,0.408,0.718,0.682,-,CALM,��
2019/12/17,02:40,0.719,1.039,0.697,1.310,0.911,0.409,0.718,0.683,��쓌,1.1,��
2019/12/17,02:50,0.722,1.040,0.698,1.309,0.912,0.409,0.717,0.681,�쓌,1.0,��
2019/12/17,03:00,0.721,1.041,0.697,1.310,0.912,0.411,0.718,0.682,���쓌,0.9,��
2019/12/17,03:10,0.720,1.042,0.698,1.307,0.911,0.409,0.718,0.681,��,1.7,��
2019/12/17,03:20,0.722,1.041,0.697,1.313,0.912,0.411,0.718,0.683,�k��,1.2,��
2019/12/17,03:30,0.723,1.043,0.696,1.313,0.912,0.411,0.718,0.683,���k��,1.0,��
2019/12/17,03:40,0.720,1.041,0.696,1.313,0.911,0.410,0.718,0.681,��,1.1,��
2019/12/17,03:50,0.721,1.040,0.700,1.311,0.913,0.410,0.719,0.683,���쓌,0.7,��
2019/12/17,04:00,0.722,1.040,0.697,1.311,0.913,0.411,0.718,0.682,�쓌,0.8,��
2019/12/17,04:10,0.723,1.043,0.697,1.311,0.912,0.410,0.718,0.682,��쓌,0.7,��
2019/12/17,04:20,0.722,1.044,0.698,1.310,0.911,0.410,0.720,0.683,�쓌,1.5,��
2019/12/17,04:30,0.722,1.040,0.697,1.313,0.912,0.411,0.718,0.683,�쓌,2.7,��
2019/12/17,04:40,0.722,1.042,0.697,1.311,0.914,0.410,0.720,0.682,��쓌,4.3,��
2019/12/17,04:50,0.725,1.042,0.694,1.311,0.913,0.411,0.719,0.681,��쓌,4.7,��
2019/12/17,05:00,0.721,1.043,0.698,1.311,0.910,0.411,0.720,0.683,��,5.3,��
2019/12/17,05:10,0.722,1.044,0.698,1.310,0.911,0.410,0.719,0.683,��쓌,5.2,��
2019/12/17,05:20,0.722,1.040,0.698,1.310,0.912,0.411,0.721,0.682,��,5.8,��
2019/12/17,05:30,0.722,1.042,0.698,1.311,0.910,0.410,0.720,0.683,��,5.8,��
2019/12/17,05:40,0.721,1.041,0.699,1.312,0.910,0.411,0.721,0.683,��,5.5,��
2019/12/17,05:50,0.723,1.043,0.697,1.313,0.912,0.410,0.719,0.682,��,5.6,��
2019/12/17,06:00,0.723,1.041,0.697,1.311,0.914,0.411,0.719,0.683,��,6.6,��
2019/12/17,06:10,0.724,1.041,0.699,1.314,0.911,0.410,0.720,0.682,��,5.2,��
2019/12/17,06:20,0.723,1.041,0.698,1.310,0.911,0.410,0.720,0.683,��,5.5,��
2019/12/17,06:30,0.724,1.039,0.697,1.312,0.910,0.411,0.720,0.683,��,7.1,��
2019/12/17,06:40,0.725,1.043,0.698,1.311,0.910,0.412,0.723,0.683,��,7.1,��
2019/12/17,06:50,0.724,1.040,0.698,1.312,0.911,0.411,0.719,0.683,��,7.7,��
2019/12/17,07:00,0.723,1.039,0.698,1.311,0.912,0.412,0.723,0.681,��,5.8,��
2019/12/17,07:10,0.726,1.041,0.699,1.309,0.912,0.412,0.721,0.682,��,6.6,��
2019/12/17,07:20,0.725,1.040,0.697,1.312,0.912,0.411,0.721,0.684,��,7.7,��
2019/12/17,07:30,0.725,1.041,0.698,1.310,0.913,0.411,0.719,0.683,��,7.4,��
2019/12/17,07:40,0.724,1.040,0.698,1.311,0.910,0.411,0.721,0.682,��,6.6,��
2019/12/17,07:50,0.724,1.041,0.696,1.308,0.911,0.410,0.722,0.683,��,4.9,��
2019/12/17,08:00,0.724,1.040,0.698,1.313,0.911,0.412,0.721,0.684,��,3.0,��
2019/12/17,08:10,0.726,1.042,0.697,1.309,0.913,0.412,0.719,0.683,��,3.0,��
2019/12/17,08:20,0.724,1.041,0.699,1.310,0.912,0.411,0.719,0.683,��,3.3,��
2019/12/17,08:30,0.724,1.040,0.697,1.309,0.912,0.412,0.720,0.681,��,1.9,��
2019/12/17,08:40,0.725,1.040,0.698,1.313,0.913,0.411,0.720,0.683,���쓌,0.8,��
2019/12/17,08:50,0.727,1.042,0.696,1.311,0.912,0.411,0.721,0.683,�쓌,1.7,��
2019/12/17,09:00,0.726,1.040,0.700,1.311,0.913,0.411,0.720,0.684,��쓌,2.4,��
2019/12/17,09:10,0.724,1.042,0.699,1.310,0.913,0.412,0.721,0.684,��,4.0,��
2019/12/17,09:20,0.725,1.042,0.697,1.310,0.915,0.411,0.723,0.683,��쓌,5.3,��
2019/12/17,09:30,0.723,1.039,0.699,1.311,0.914,0.413,0.722,0.683,��,7.2,��
2019/12/17,09:40,0.728,1.042,0.699,1.311,0.915,0.412,0.721,0.686,��,7.4,��
2019/12/17,09:50,0.727,1.040,0.698,1.311,0.914,0.412,0.721,0.684,��,8.2,��
2019/12/17,10:00,0.726,1.040,0.699,1.312,0.915,0.412,0.720,0.685,��,7.7,��
2019/12/17,10:10,0.727,1.041,0.697,1.312,0.912,0.413,0.722,0.685,��,8.2,��
2019/12/17,10:20,0.726,1.042,0.700,1.312,0.914,0.412,0.724,0.686,��,9.6,��
2019/12/17,10:30,0.729,1.038,0.699,1.311,0.914,0.411,0.722,0.684,��,6.1,��
2019/12/17,10:40,0.728,1.039,0.699,1.312,0.916,0.412,0.722,0.684,��,7.8,��
2019/12/17,10:50,0.726,1.040,0.700,1.311,0.914,0.409,0.721,0.684,��,6.3,��
2019/12/17,11:00,0.722,1.039,0.701,1.312,0.912,0.410,0.721,0.684,��,6.1,��
2019/12/17,11:10,0.725,1.040,0.700,1.311,0.912,0.412,0.721,0.685,��,6.3,��
2019/12/17,11:20,0.727,1.039,0.701,1.313,0.913,0.410,0.720,0.684,��,6.6,��
2019/12/17,11:30,0.725,1.038,-,1.310,0.913,0.412,0.721,0.685,��,5.8,�L
2019/12/17,11:40,0.726,1.038,-,1.313,0.914,0.413,0.721,0.685,��,5.8,�L
2019/12/17,11:50,0.727,1.037,0.698,1.312,0.911,0.414,0.722,0.684,��,6.6,�L
2019/12/17,12:00,0.727,1.038,0.701,1.312,0.912,0.414,0.718,0.684,��,7.1,�L
2019/12/17,12:10,0.727,1.038,0.699,1.311,0.908,0.415,0.720,0.682,��,6.9,�L
2019/12/17,12:20,0.726,1.036,0.700,1.312,0.910,0.417,0.719,0.683,��쐼,7.1,�L
2019/12/17,12:30,0.730,1.037,0.701,1.308,0.912,0.415,0.719,0.683,��,7.8,�L
2019/12/17,12:40,0.726,1.036,0.701,1.309,0.911,0.415,0.720,0.681,��,9.1,�L
2019/12/17,12:50,0.728,1.038,0.700,1.310,0.911,0.414,0.720,0.683,��,9.9,�L
2019/12/17,13:00,0.727,1.035,0.698,1.309,0.914,0.416,0.721,0.683,��,8.9,�L
2019/12/17,13:10,0.726,1.037,0.699,1.312,0.910,0.415,0.722,0.683,��,8.5,��
2019/12/17,13:20,0.725,1.037,0.700,1.310,0.910,0.414,0.721,0.684,��,6.7,��
2019/12/17,13:30,0.726,1.036,-,1.310,0.912,0.415,0.721,0.683,��,6.7,��
2019/12/17,13:40,0.725,1.038,-,1.307,0.912,0.415,0.721,0.682,��,6.0,��
2019/12/17,13:50,0.723,1.034,-,1.310,0.912,0.413,0.720,0.683,��,6.0,��
2019/12/17,14:00,0.722,1.035,0.698,1.308,0.910,0.415,0.722,0.683,��,6.0,�L
2019/12/17,14:10,0.721,1.036,0.699,1.307,0.911,0.415,0.721,0.684,��쐼,5.5,�L
2019/12/17,14:20,0.721,1.035,0.697,-,0.910,0.415,0.721,0.682,��,6.3,�L
2019/12/17,14:30,0.720,1.033,0.696,1.301,0.911,0.414,0.721,0.684,��쐼,5.5,�L
2019/12/17,14:40,0.720,1.036,0.696,1.304,0.910,0.415,0.719,0.683,��,5.0,�L
2019/12/17,14:50,0.720,1.035,0.698,1.306,0.911,0.414,0.721,0.683,��,6.4,�L
2019/12/17,15:00,0.719,1.035,0.695,1.305,0.912,0.415,0.723,0.684,��,6.3,��
2019/12/17,15:10,0.722,1.037,0.699,1.306,0.910,0.414,0.722,0.683,��,7.2,��
2019/12/17,15:20,0.725,1.038,0.697,1.307,0.912,0.415,0.721,0.684,��,4.9,��
2019/12/17,15:30,0.722,1.036,0.698,1.306,0.910,0.414,0.721,0.683,��쓌,4.3,��
2019/12/17,15:40,0.724,1.038,0.695,-,0.910,0.414,0.722,0.684,��,4.5,��
2019/12/17,15:50,0.724,1.037,0.697,-,0.909,0.412,0.720,0.684,��쓌,4.0,��
2019/12/17,16:00,0.725,1.038,0.696,-,0.911,0.414,0.720,0.683,��쓌,2.6,�L
2019/12/17,16:10,0.725,1.037,0.696,-,0.909,0.415,0.721,0.683,��,1.9,�L
2019/12/17,16:20,0.723,1.038,0.696,1.307,0.908,0.414,0.719,0.683,��,1.6,�L
2019/12/17,16:30,0.723,1.037,0.697,1.307,0.908,0.414,0.720,0.683,��쐼,1.3,��
2019/12/17,16:40,0.722,1.034,0.698,1.309,0.910,0.414,0.721,0.683,��쐼,0.7,��
2019/12/17,16:50,0.723,1.038,0.697,1.309,0.909,0.414,0.721,0.683,-,CALM,��
2019/12/17,17:00,0.724,1.037,0.698,1.308,0.911,0.415,0.719,0.684,�k,2.5,��
2019/12/17,17:10,0.723,1.036,0.697,1.308,0.912,0.412,0.721,0.685,�k�k��,3.3,��
2019/12/17,17:20,0.724,1.036,0.698,1.309,0.913,0.414,0.719,0.684,�k,3.0,��
2019/12/17,17:30,0.722,1.038,0.697,1.309,0.912,0.413,0.720,0.683,�k�k��,3.8,��
2019/12/17,17:40,0.722,1.040,0.698,1.307,0.909,0.414,0.721,0.684,�k�k��,3.9,��
2019/12/17,17:50,0.723,1.038,0.697,1.309,0.912,0.414,0.720,0.685,�k�k��,3.8,��
2019/12/17,18:00,0.725,1.039,0.697,1.310,0.911,0.413,0.720,0.684,�k�k��,3.8,��
2019/12/17,18:10,0.723,1.037,0.699,1.306,0.911,0.413,0.721,0.685,�k�k��,3.8,��
2019/12/17,18:20,0.723,1.038,0.697,1.308,0.909,0.412,0.720,0.683,�k�k��,4.3,��
2019/12/17,18:30,0.721,1.038,0.696,1.310,0.912,0.414,0.721,0.683,�k�k��,3.4,��
2019/12/17,18:40,0.722,1.040,0.699,1.310,0.910,0.412,0.721,0.683,�k�k��,4.0,��
2019/12/17,18:50,0.723,1.038,0.697,1.309,0.911,0.414,0.721,0.684,�k�k��,3.5,��
2019/12/17,19:00,0.721,1.037,0.698,1.309,0.912,0.412,0.722,0.683,�k��,2.6,��
2019/12/17,19:10,0.722,1.037,0.699,1.311,0.909,0.413,0.722,0.684,���k��,2.1,��
2019/12/17,19:20,0.722,1.036,0.697,1.306,0.911,0.413,0.722,0.682,�k�k��,2.7,��
2019/12/17,19:30,0.724,1.038,0.698,1.309,0.912,0.414,0.722,0.684,�k�k��,4.3,��
2019/12/17,19:40,0.723,1.037,0.697,1.310,0.911,0.413,0.722,0.682,�k��,3.2,��
2019/12/17,19:50,0.724,1.040,0.699,1.309,0.911,0.412,0.723,0.682,�k�k��,2.0,��
2019/12/17,20:00,0.723,1.037,0.699,1.308,0.910,0.413,0.722,0.682,�k��,1.4,��
2019/12/17,20:10,0.725,1.038,0.698,1.309,0.911,0.414,0.722,0.682,���k��,1.5,��
2019/12/17,20:20,0.722,1.037,0.699,1.307,0.911,0.412,0.723,0.684,���쐼,1.1,��
2019/12/17,20:30,0.722,1.034,0.698,1.308,0.910,0.413,0.721,0.682,���쐼,0.8,��
2019/12/17,20:40,0.724,1.038,0.700,1.309,0.913,0.411,0.722,0.682,�쐼,1.4,��
2019/12/17,20:50,0.721,1.039,0.698,1.309,0.911,0.414,0.721,0.683,-,CALM,��
2019/12/17,21:00,0.722,1.039,0.698,1.308,0.912,0.413,0.722,0.683,��,1.4,��
2019/12/17,21:10,0.724,1.036,0.698,1.309,0.910,0.412,0.723,0.682,��쓌,1.2,��
2019/12/17,21:20,0.723,1.037,0.699,1.310,0.910,0.412,0.722,0.683,���쓌,0.6,��
2019/12/17,21:30,0.722,1.039,0.697,1.310,0.911,0.413,0.722,0.682,���쓌,1.8,��
2019/12/17,21:40,0.723,1.035,0.697,1.307,0.909,0.413,0.722,0.683,�쓌,1.5,��
2019/12/17,21:50,0.721,1.037,0.698,1.309,0.913,0.412,0.721,0.684,���쓌,0.7,��
2019/12/17,22:00,0.724,1.038,0.698,1.309,0.913,0.413,0.723,0.682,��,1.0,��
2019/12/17,22:10,0.722,1.036,0.698,1.308,0.912,0.412,0.721,0.683,��,1.3,��
2019/12/17,22:20,0.724,1.036,0.699,1.309,0.911,0.412,0.723,0.684,��,1.2,��
2019/12/17,22:30,0.721,1.036,0.697,1.309,0.911,0.412,0.722,0.682,��,1.3,��
2019/12/17,22:40,0.723,1.036,0.698,1.310,0.913,0.413,0.722,0.683,���쓌,0.7,��
2019/12/17,22:50,0.724,1.039,0.699,1.310,0.910,0.412,0.721,0.682,���쓌,0.7,��
2019/12/17,23:00,0.723,1.037,0.698,1.309,0.910,0.413,0.722,0.684,��,0.9,��
2019/12/17,23:10,0.723,1.036,0.698,1.310,0.912,0.414,0.720,0.684,��쐼,1.0,��
2019/12/17,23:20,0.721,1.037,0.697,1.313,0.913,0.414,0.722,0.682,��,1.1,��
2019/12/17,23:30,0.726,1.038,0.698,1.308,0.908,0.414,0.722,0.684,�쐼,0.8,��
2019/12/17,23:40,0.723,1.036,0.700,1.307,0.909,0.414,0.721,0.682,���k��,1.8,��
2019/12/17,23:50,0.724,1.036,0.699,1.310,0.910,0.414,0.721,0.683,�k��,4.0,��
